Wind_Speed
48 49 50 51 53 54 56 58 59 60 60 59 58 58 58 58 58 58 58 58 59 59 59 58 58 57 57 56 55 54 53 52 51 50 49 48 48 47 47 47 46 45
53 54 55 56 58 59 60 61 62 63 63 62 60 59 58 58 58 58 58 58 58 58 58 58 58 57 57 56 56 55 54 53 51 51 51 50 50 50 49 48 48 47
58 59 60 61 61 62 62 63 64 65 65 63 61 59 58 58 58 57 58 57 57 57 57 57 57 57 57 56 56 55 55 54 53 53 53 53 53 53 52 51 50 50
59 60 61 62 63 63 64 65 65 65 64 62 61 60 59 59 58 58 57 57 56 56 56 56 56 56 56 56 56 56 55 55 55 55 55 55 55 55 55 54 53 53
59 61 62 63 64 65 65 66 65 65 63 61 61 61 60 60 60 59 59 57 56 56 56 56 56 56 56 56 56 56 56 56 56 56 56 56 56 56 56 56 55 55
62 63 64 65 67 67 67 66 64 63 61 60 60 61 61 61 61 62 61 60 57 56 57 57 56 56 55 55 55 55 55 55 55 55 55 55 55 55 55 56 56 56
65 66 66 67 68 68 67 65 61 60 59 59 59 59 60 61 62 63 63 62 60 58 58 57 56 56 55 55 54 54 55 55 55 55 55 55 55 55 55 56 56 56
67 67 68 69 69 68 65 61 58 57 57 57 58 59 59 60 61 62 63 63 62 61 60 59 57 56 55 55 55 55 55 55 55 55 55 55 55 55 56 56 56 57
68 68 69 69 67 65 62 59 57 57 56 57 58 59 59 60 61 61 62 62 62 62 62 60 59 58 57 56 56 56 56 56 56 56 56 56 56 56 56 56 57 57
68 68 69 68 66 63 61 59 58 58 58 59 59 60 60 61 61 61 62 62 62 63 63 62 61 59 58 58 58 58 58 58 58 58 58 58 58 58 58 58 58 58
68 68 68 67 65 62 61 60 60 60 61 61 62 62 62 62 62 62 62 62 63 63 63 62 62 61 60 59 59 59 59 60 60 60 60 61 61 61 61 61 61 60
68 68 68 66 64 63 62 61 62 62 63 64 64 64 64 64 64 63 63 63 63 63 62 62 62 62 61 61 61 61 61 62 62 63 63 63 64 65 65 65 65 64
68 68 67 66 65 64 63 63 63 64 65 65 66 66 66 66 66 66 65 65 63 62 62 62 62 62 62 62 62 63 63 63 64 64 65 66 66 67 67 68 68 68
69 68 67 66 66 66 65 65 65 65 66 67 68 68 68 68 68 68 67 65 62 61 61 61 62 62 63 63 63 64 64 64 64 65 66 67 68 69 69 70 70 70
69 68 68 67 67 67 66 66 66 67 67 68 69 69 69 69 69 69 66 63 61 60 60 60 61 62 63 63 64 64 64 64 65 67 68 69 70 71 71 72 72 71
68 68 68 68 68 68 68 67 68 68 68 68 69 69 70 70 70 68 64 61 60 60 60 60 61 61 62 62 63 64 65 66 68 69 70 71 72 73 74 73 73 71
68 68 68 68 69 69 69 69 69 68 68 68 69 69 70 70 68 65 62 60 59 59 60 60 60 60 61 62 63 64 66 68 69 71 72 73 74 74 74 73 72 71
68 68 69 69 68 69 70 70 69 69 69 69 68 68 68 67 64 61 59 58 57 57 58 59 59 60 61 63 64 66 68 69 70 72 73 74 75 74 72 71 71 71
68 69 69 69 69 69 70 71 71 71 70 69 67 66 65 62 58 56 55 55 55 56 57 58 59 61 62 64 66 67 69 71 73 74 75 74 73 72 71 71 71 71
68 69 69 69 69 69 70 70 71 71 70 69 67 64 61 57 54 53 54 54 55 56 58 59 61 63 64 66 68 70 72 74 74 75 74 73 72 71 71 72 72 72
67 67 67 68 68 69 69 69 69 70 69 68 65 61 57 54 53 54 55 56 58 59 61 63 65 67 68 70 72 73 74 74 73 73 72 72 73 73 73 73 73 74
66 66 66 66 66 67 67 68 68 67 66 63 60 57 55 54 55 56 58 59 61 63 65 67 69 71 72 73 73 73 72 72 72 72 73 74 74 75 75 76 76 76
64 64 64 64 65 65 65 65 65 63 61 58 56 55 55 56 57 59 61 63 65 66 68 70 72 72 72 72 71 71 72 73 73 74 75 77 78 79 80 80 79 78
62 62 62 63 63 63 62 61 59 57 56 55 54 55 57 59 61 62 64 65 67 69 70 71 71 70 70 71 72 73 74 75 76 77 79 80 82 83 82 81 79 77
60 60 60 61 60 59 58 56 54 53 53 53 55 57 59 61 62 64 66 67 69 69 69 69 69 70 71 72 74 75 76 78 79 81 82 83 84 83 82 80 79 77
58 59 58 57 56 54 52 51 51 51 52 54 56 58 60 62 64 66 67 68 69 69 69 69 70 71 72 74 75 77 79 81 82 83 83 83 82 81 80 79 78 76
Wind_Direction
285 286 287 288 290 292 293 295 298 300 300 299 296 293 291 288 287 286 285 285 284 284 284 284 284 284 284 285 285 285 286 286 285 285 284 284 285 285 285 285 285 285
284 285 287 289 291 293 294 296 298 300 301 299 297 294 291 288 287 286 285 284 284 284 284 284 284 284 284 284 284 285 285 285 284 283 283 283 284 284 284 284 283 283
284 286 288 290 292 294 295 297 299 300 300 298 295 293 290 289 288 287 286 285 284 284 284 284 284 284 284 284 284 284 284 283 282 282 282 282 283 284 283 283 282 281
285 287 289 291 293 295 297 298 299 299 298 296 294 292 290 289 288 287 287 286 285 285 284 284 283 283 283 284 284 283 283 283 282 282 282 282 283 283 283 282 281 280
286 288 290 292 295 297 298 298 298 297 296 294 293 292 291 289 288 287 287 286 286 286 284 284 283 283 283 283 283 283 283 283 283 283 283 283 283 282 282 281 280 280
286 288 290 292 294 296 296 297 296 295 295 295 294 293 292 290 289 288 287 287 287 286 285 284 284 284 284 284 284 284 284 284 284 283 283 283 282 282 281 280 280 279
286 287 289 291 292 294 295 295 294 294 295 295 295 294 293 291 290 289 288 287 286 285 284 284 284 284 284 284 284 284 284 284 283 283 283 283 282 281 281 280 279 279
286 287 288 290 292 294 294 293 293 293 293 294 294 294 294 293 291 290 289 288 286 285 284 284 284 284 283 283 283 283 283 283 283 283 283 283 283 282 282 281 280 279
287 288 289 291 292 293 292 291 291 292 292 293 293 294 294 294 293 292 291 289 287 285 284 283 283 283 283 283 283 283 283 283 284 284 284 284 284 284 283 282 281 280
289 290 290 291 292 292 291 290 290 290 291 292 293 294 295 295 295 294 293 291 288 286 284 283 282 282 282 282 283 283 284 284 285 285 285 285 285 285 284 283 282 281
289 289 290 290 291 290 289 288 289 289 290 291 293 293 294 295 295 295 294 292 289 286 284 283 282 281 281 282 282 283 284 284 285 286 287 287 287 287 286 285 284 282
288 288 288 289 289 289 288 287 287 288 289 291 292 293 294 295 295 295 294 292 289 286 284 282 282 281 281 281 282 283 283 284 285 286 287 287 287 287 287 286 285 283
286 287 287 287 288 288 287 287 287 288 289 290 292 293 294 295 294 294 293 292 289 285 283 282 281 281 281 281 282 282 283 284 285 286 286 286 286 286 285 285 284 283
285 286 286 286 286 287 287 287 287 288 289 291 292 293 293 293 294 294 294 291 288 285 283 281 281 281 281 281 281 282 283 284 285 286 286 285 285 285 285 284 284 283
284 284 284 285 285 286 286 286 287 288 289 290 291 292 292 293 293 294 294 291 287 285 283 282 281 281 281 282 283 284 285 285 285 285 285 285 285 285 285 285 284 283
283 283 284 284 284 285 285 286 286 287 288 289 290 291 292 293 294 294 292 289 287 285 284 283 283 283 283 284 284 285 285 286 286 286 286 286 287 287 287 286 285 284
282 283 283 283 284 284 285 285 286 287 288 289 290 291 292 293 293 292 290 288 287 286 285 285 285 285 285 285 285 285 285 285 286 286 287 287 288 288 288 287 286 285
282 282 283 283 284 284 285 286 286 287 287 288 289 290 292 293 291 290 288 288 288 287 287 286 286 286 285 285 285 285 286 286 287 288 288 289 289 288 287 287 286 285
281 282 282 283 284 285 286 287 287 288 288 289 290 291 292 291 289 287 288 288 289 288 287 287 286 286 286 286 287 287 288 289 289 290 290 289 288 287 286 285 285 285
281 282 282 283 284 285 287 288 289 290 291 292 293 293 293 291 289 288 289 289 289 289 288 289 289 289 289 290 290 290 290 291 291 290 290 289 288 287 286 286 285 285
281 281 283 284 285 286 287 288 289 290 291 293 293 293 292 292 291 291 291 291 291 291 292 292 292 293 293 293 292 292 292 292 291 290 290 289 289 288 288 287 286 286
280 281 282 283 285 286 287 288 289 290 291 291 292 292 292 292 292 293 293 293 294 294 295 295 295 295 295 294 294 293 293 292 292 292 292 292 292 292 291 291 289 288
280 281 282 283 283 285 286 287 288 289 290 291 291 292 293 293 294 294 294 294 295 295 296 296 296 296 296 295 295 295 294 294 295 295 296 296 296 296 295 294 293 292
280 281 281 282 284 285 286 287 288 289 290 291 292 293 293 293 293 293 293 294 295 296 297 297 297 297 296 296 296 296 297 297 298 299 299 299 299 298 298 297 296 296
280 281 282 283 285 286 286 287 288 289 290 291 291 291 291 291 291 292 293 295 296 296 297 297 297 296 296 297 297 298 299 300 300 301 301 300 300 300 299 299 299 298
281 282 283 283 284 284 285 286 287 288 289 289 289 289 289 290 292 293 294 295 296 296 296 296 296 296 297 298 299 300 301 301 301 301 301 301 301 300 300 300 300 300
Height
10683 10682 10682 10680 10679 10678 10677 10676 10675 10674 10672 10671 10669 10667 10666 10664 10662 10661 10659 10658 10658 10656 10656 10655 10654 10654 10652 10651 10651 10650 10649 10648 10647 10645 10645 10644 10643 10642 10641 10640 10640 10640
10677 10676 10675 10674 10673 10672 10671 10670 10668 10667 10666 10664 10662 10660 10659 10657 10655 10654 10652 10651 10651 10650 10649 10648 10647 10647 10646 10645 10644 10643 10642 10641 10640 10639 10638 10637 10636 10635 10634 10633 10633 10632
10671 10670 10669 10668 10667 10666 10664 10663 10662 10661 10659 10657 10656 10654 10652 10650 10648 10647 10645 10645 10644 10643 10642 10641 10640 10639 10639 10638 10637 10636 10635 10634 10633 10632 10631 10630 10629 10628 10627 10626 10626 10625
10665 10664 10663 10662 10661 10660 10658 10657 10655 10654 10653 10651 10649 10647 10645 10643 10642 10640 10639 10638 10637 10636 10635 10634 10634 10633 10632 10631 10630 10629 10628 10627 10626 10625 10624 10623 10622 10620 10619 10619 10618 10618
10659 10658 10657 10656 10655 10654 10652 10651 10649 10648 10647 10645 10643 10641 10639 10637 10635 10633 10632 10631 10631 10630 10628 10627 10626 10626 10625 10624 10623 10621 10620 10619 10618 10617 10616 10615 10614 10613 10612 10611 10610 10610
10654 10653 10652 10650 10649 10648 10647 10645 10644 10642 10641 10639 10636 10634 10632 10630 10628 10626 10625 10625 10624 10623 10621 10620 10619 10618 10617 10616 10615 10614 10612 10611 10610 10609 10608 10607 10606 10605 10604 10603 10603 10602
10648 10647 10646 10645 10644 10643 10641 10640 10638 10637 10635 10633 10630 10628 10626 10624 10621 10619 10618 10618 10617 10616 10614 10613 10612 10611 10610 10609 10608 10606 10605 10604 10602 10601 10600 10599 10598 10598 10597 10596 10595 10594
10643 10642 10641 10640 10638 10637 10636 10634 10633 10631 10629 10627 10625 10622 10620 10618 10615 10613 10612 10611 10610 10609 10607 10606 10605 10604 10603 10601 10600 10599 10598 10596 10595 10594 10592 10591 10590 10589 10588 10588 10587 10586
10637 10635 10634 10634 10632 10631 10629 10628 10627 10625 10624 10622 10619 10617 10614 10612 10610 10608 10606 10604 10603 10601 10600 10599 10597 10596 10595 10594 10592 10591 10590 10589 10587 10586 10585 10583 10582 10581 10580 10579 10578 10577
10630 10629 10628 10627 10626 10624 10623 10622 10620 10619 10617 10615 10613 10611 10608 10606 10604 10602 10600 10597 10595 10594 10592 10591 10589 10588 10587 10586 10585 10583 10582 10581 10579 10578 10577 10575 10574 10573 10571 10570 10569 10569
10625 10623 10622 10621 10619 10618 10616 10615 10613 10612 10610 10608 10606 10604 10602 10600 10598 10595 10593 10590 10588 10586 10584 10582 10581 10580 10579 10578 10577 10575 10574 10572 10571 10570 10568 10567 10565 10563 10562 10561 10560 10559
10619 10618 10616 10615 10613 10611 10610 10608 10606 10605 10603 10601 10599 10597 10595 10593 10590 10588 10586 10583 10580 10578 10576 10574 10573 10572 10571 10569 10568 10567 10566 10564 10563 10561 10560 10558 10556 10554 10553 10551 10550 10549
10613 10611 10610 10608 10606 10605 10603 10601 10599 10598 10596 10594 10592 10590 10588 10585 10583 10580 10578 10575 10573 10570 10568 10567 10565 10563 10562 10561 10560 10558 10557 10556 10554 10552 10551 10549 10547 10545 10543 10541 10539 10538
10607 10605 10603 10601 10600 10598 10596 10594 10593 10591 10589 10587 10585 10583 10580 10578 10575 10572 10569 10567 10565 10563 10561 10559 10557 10556 10554 10553 10551 10550 10549 10547 10545 10543 10541 10539 10537 10535 10533 10531 10529 10527
10600 10598 10596 10594 10593 10591 10589 10588 10586 10584 10582 10580 10578 10575 10573 10570 10567 10564 10561 10559 10557 10555 10553 10552 10550 10548 10546 10544 10543 10541 10540 10538 10536 10534 10531 10528 10526 10524 10522 10520 10518 10516
10593 10591 10589 10587 10586 10584 10582 10581 10579 10577 10576 10573 10571 10568 10565 10562 10559 10556 10554 10551 10549 10548 10546 10544 10543 10541 10539 10537 10534 10532 10530 10528 10526 10523 10521 10518 10515 10513 10510 10508 10506 10504
10587 10584 10582 10580 10579 10577 10575 10573 10572 10570 10568 10566 10563 10560 10557 10554 10551 10548 10546 10544 10542 10540 10539 10537 10535 10533 10531 10529 10526 10524 10521 10518 10516 10513 10511 10508 10505 10502 10499 10496 10494 10492
10579 10577 10575 10573 10572 10569 10567 10565 10564 10562 10561 10559 10556 10554 10550 10547 10544 10541 10539 10537 10535 10533 10531 10529 10527 10525 10523 10520 10518 10515 10512 10509 10506 10503 10500 10498 10494 10492 10489 10486 10483 10481
10572 10570 10568 10566 10564 10562 10559 10557 10555 10553 10552 10551 10549 10546 10543 10540 10537 10534 10532 10530 10527 10525 10523 10521 10519 10517 10515 10512 10509 10506 10503 10499 10496 10493 10490 10487 10484 10481 10479 10476 10474 10471
10565 10563 10560 10559 10557 10554 10552 10549 10547 10544 10543 10541 10539 10537 10535 10532 10530 10527 10525 10523 10520 10518 10515 10513 10510 10508 10505 10502 10499 10496 10492 10489 10485 10482 10479 10475 10473 10471 10469 10466 10464 10461
10558 10556 10553 10551 10549 10547 10544 10542 10539 10537 10535 10533 10531 10529 10527 10525 10522 10520 10518 10515 10513 10510 10507 10504 10501 10498 10495 10492 10489 10485 10482 10478 10474 10471 10468 10465 10462 10459 10457 10455 10453 10450
10552 10549 10547 10545 10542 10540 10537 10534 10532 10530 10528 10526 10524 10522 10520 10518 10515 10513 10510 10508 10505 10502 10499 10496 10492 10489 10485 10481 10478 10474 10471 10467 10463 10460 10456 10453 10450 10447 10444 10441 10438 10436
10545 10542 10540 10538 10535 10533 10530 10528 10525 10523 10521 10519 10517 10515 10513 10511 10508 10506 10503 10500 10497 10494 10491 10487 10483 10479 10475 10471 10467 10464 10460 10456 10452 10448 10444 10440 10437 10433 10429 10425 10422 10419
10537 10535 10533 10530 10528 10525 10523 10521 10519 10517 10514 10512 10510 10508 10506 10504 10501 10499 10496 10493 10490 10487 10483 10479 10475 10471 10466 10462 10458 10454 10450 10446 10441 10437 10433 10428 10423 10419 10414 10410 10406 10403
10529 10527 10525 10523 10521 10518 10516 10514 10512 10510 10508 10506 10504 10502 10500 10497 10495 10492 10489 10486 10483 10479 10475 10471 10467 10463 10459 10454 10450 10445 10440 10436 10431 10426 10422 10417 10412 10406 10401 10396 10392 10388
10522 10520 10518 10516 10514 10512 10510 10508 10506 10504 10502 10500 10498 10496 10493 10491 10488 10485 10482 10479 10475 10471 10468 10464 10460 10455 10451 10446 10442 10437 10431 10426 10421 10416 10411 10406 10401 10396 10391 10386 10380 10376